Regional Weather Roundup
Issued by NWS

Home | Current Version | Previous Version | Graphics & Text | Print | Product List | Glossary On
Versions: 1 2 3 4 5 6 7 8 9 10 11 12 13 14 15 16 17 18 19 20 21 22 23 24 25 26 27 28 29 30 31 32 33 34 35 36 37 38 39 40 41 42 43 44 45 46 47 48 49 50
000
ASUS43 KMKX 301400
RWRWI

WISCONSIN REGIONAL WEATHER ROUNDUP
NATIONAL WEATHER SERVICE MILWAUKEE/SULLIVAN WI
900 AM CDT THU OCT 30 2014

NOTE: "FAIR" INDICATES FEW OR NO CLOUDS BELOW 12,000 FEET WITH NO
SIGNIFICANT WEATHER AND/OR OBSTRUCTIONS TO VISIBILITY.

WIZ001-002-006>008-014>016-023>028-301500-
NORTHWEST WISCONSIN

CITY           SKY/WX    TMP DP  RH WIND       PRES   REMARKS
SUPERIOR ARPT  CLOUDY    36  34  91 W5        30.08R WCI  32
ASHLAND        CLOUDY    38  33  82 SW6       30.07R WCI  33
HAYWARD        CLOUDY    36  33  89 CALM      30.06R
SIREN          CLOUDY    35  34  94 CALM      30.07R
CUMBERLAND     CLOUDY    34  32  93 CALM      30.05S FOG
RICE LAKE      CLOUDY    36  34  93 CALM      30.07S
CHETEK         CLOUDY    36  33  92 CALM      30.07R
LADYSMITH      CLOUDY    35  34  94 CALM      30.07S
EAU CLAIRE     NOT AVBL
MENOMONIE      CLOUDY    37  34  87 SE3       30.07R
NEW RICHMOND   CLOUDY    38  36  94 CALM      30.06R
OSCEOLA        CLOUDY    38  37  94 E3        30.09R
$$

WIZ003>005-009-010-017-018-301500-
NORTH CENTRAL WISCONSIN

CITY           SKY/WX    TMP DP  RH WIND       PRES   REMARKS
MANITOWISH WTR CLOUDY    35  32  88 NW6       30.03R WCI  30
ARBOR VITAE    CLOUDY    37  34  87 W3        30.03R
WOODRUFF       CLOUDY    37  34  87 W3        30.03R
RHINELANDER    CLOUDY    36  32  85 SW5       30.04R WCI  32
EAGLE RIVER    CLOUDY    36  31  83 CALM      30.02S
LAND O LAKES   CLOUDY    36  34  90 CALM      30.03R
PHILLIPS       CLOUDY    36  32  87 CALM      30.03S
TOMAHAWK       CLOUDY    35  32  89 CALM      30.05R
MEDFORD        CLOUDY    34  32  93 CALM      30.05R
MERRILL        CLOUDY    32  32  99 CALM      30.06R
$$

WIZ029-030-035-036-043>047-301500-
CENTRAL WISCONSIN

CITY           SKY/WX    TMP DP  RH WIND       PRES   REMARKS
WAUSAU         CLOUDY    36  34  92 SW3       30.06R
MOSINEE        PTSUNNY   36  36 100 SW5       30.07R WCI  32
MARSHFIELD     CLOUDY    35  32  88 CALM      30.06S
STEVENS POINT  PTSUNNY   32  31  98 CALM      30.08R
WAUPACA        PTSUNNY   36  34  95 CALM      30.09S
WAUTOMA        NOT AVBL
WISC RAPIDS    CLOUDY    36  34  92 CALM      30.09S
CAMP DOUGLAS   NOT AVBL
$$

WIZ011>013-019>022-031-037>040-048>050-301500-
NORTHEAST WISCONSIN

CITY           SKY/WX    TMP DP  RH WIND       PRES   REMARKS
ANTIGO         CLOUDY    33  33  98 CALM      30.05S
SHAWANO        PTSUNNY   38  34  85 CALM      30.08S
OCONTO         CLOUDY    39  36  91 CALM      30.07S
STURGEON BAY   PTSUNNY   41  34  75 SW5       30.08S
GREEN BAY      CLOUDY    39  36  89 SW3       30.08F
MANITOWOC      NOT AVBL
APPLETON       PTSUNNY   37  36  93 SW7       30.09R WCI  32
CLINTONVILLE   CLOUDY    34  34 100 CALM      30.08R
OSHKOSH        PTSUNNY   37  33  85 SW3       30.09R
$$

WIZ032>034-041-042-053>061-301500-
SOUTHWEST WISCONSIN

CITY           SKY/WX    TMP DP  RH WIND       PRES   REMARKS
LA CROSSE      CLOUDY    41  36  82 SE8       30.09R
SPARTA         CLOUDY    33  32  97 CALM      30.09S
VIROQUA        CLOUDY    38  33  84 S5        30.08R WCI  34
BOSCOBEL       FOG       34  33  96 CALM      30.12S VSB 1/2
PRAIRIE DU CHI MOSUNNY   34  32  92 CALM      30.10S
PLATTEVILLE    CLOUDY    37  34  89 SE3       30.11S
$$

WIZ056-057-062-063-064-067-068-301500-
SOUTH CENTRAL WISCONSIN

CITY           SKY/WX    TMP DP  RH WIND       PRES   REMARKS
REEDSBURG      CLOUDY    33  32  96 CALM      30.09S
BARABOO/DELLS  CLOUDY    36  34  91 CALM      30.09S
LONE ROCK      NOT AVBL
MINERAL POINT  CLOUDY    37  34  87 S3        30.09S
MADISON        CLOUDY    40  35  83 CALM      30.10S
MIDDLETON      CLOUDY    40  34  78 CALM      30.10S
WATERTOWN      CLOUDY    33  33  99 CALM      30.11R
MONROE         CLOUDY    36  34  93 SW7       30.10R WCI  30
JANESVILLE     MOSUNNY   37  36  93 CALM      30.11S
$$

WIZ051-052-058>065-066-070>072-301500-
SOUTHEAST WISCONSIN

CITY           SKY/WX    TMP DP  RH WIND       PRES   REMARKS
MILWAUKEE      PTSUNNY   39  32  76 W6        30.12R WCI  35
WAUKESHA       MOSUNNY   34  32  93 CALM      30.12R
MILWAUKEE/TIMM PTSUNNY   37  32  81 CALM      30.12R
RACINE         PTSUNNY   40  34  79 SW6       30.14R
BURLINGTON     PTSUNNY   32  32  99 SW3       30.12R
KENOSHA        PTSUNNY   39  36  89 SW7       30.13R WCI  34
FOND DU LAC    PTSUNNY   36  33  89 S5        30.10R WCI  32
SHEBOYGAN      PTSUNNY   38  34  85 SW5       30.10R WCI  34
WEST BEND      PTSUNNY   32  32 100 CALM      30.10R
JUNEAU         CLOUDY    33  32  96 CALM      30.11S
$$

LSZ147-162-301500-
LAKE SUPERIOR

STATION/POSITION TIME  TEMP    WIND        PRES    WAVE
                       AIR SEA DIR/SP/G            HT/PER
                 (UTC) (F)     (DEG/KT/KT) (MB)    (FT/S)
W MID LAKE BUOY  1250   42 45  260/ 10/ 12 1017.0F   2/ 4
DEVILS ISLAND    1300   40     280/  8/  9 1018.0R
PORT WING        1300   41     300/ 10/ 11 1017.9S
SAXON HARBOR     1340   40     210/  3/  5 1017.9R
$$

LMZ867-665-643>646-301500-
LAKE MICHIGAN

STATION/POSITION TIME  TEMP    WIND        PRES    WAVE
                       AIR SEA DIR/SP/G            HT/PER
                 (UTC) (F)     (DEG/KT/KT) (MB)    (FT/S)
CHAMBERS ISLAND  1300   44     230/  6/  9 1018.3S
N MID LAKE BUOY  1250   43 51  170/  6/  8 1018.7F   0
NORTHPORT PIER   1300   43     200/  2/  3 1018.3S
KEWAUNEE LAKESHO 1300   38     300/  4/  5 1017.7F
SHEBOYGAN LAKESH 1300   39 49  250/  6/  7 1019.9F
PORT WASHINGTON  1300   39     280/  5/  7 1020.0
ATWATER BUOY     1300   42     240/ 10/ 12 1020.3F
MILWAUKEE LAKESH 1300   40     230/  9/ 10   N/A
S MID LAKE BUOY  1250   48 53  220/ 10/ 12 1020.2F   1/ 5
KENOSHA   LAKESH 1300   40     250/  5/  7 1019.6F
$$

TC  - TEMPERATURE IN CELSIUS
VSB - VISIBILITY IN STATUTE MILES
WCI - WIND CHILL INDEX
HX  - HEAT INDEX




USA.gov is the U.S. government's official web portal to all federal, state and local government web resources and services.